This is the latest recevied weather packets stored in our database for station/object WS2Z. If no packets are shown the sender has not sent any weather packets the latest 10 day(s).
| Time | Temp. | Humidity | Pressure | Rain* | Wind** | Luminosity | Snow |
|---|---|---|---|---|---|---|---|
| 1778094357 | 31.67° C | 59% | 1016.2 hPa | 0 mm | - | 854 W/m² | - |
| 1778094054 | 31.11° C | 60% | 1016.2 hPa | 0 mm | - | 326 W/m² | - |
| 1778093751 | 31.11° C | 61% | 1016.3 hPa | 0 mm | - | 890 W/m² | - |
| 1778093447 | 31.11° C | 61% | 1016.3 hPa | 0 mm | - | 892 W/m² | - |
| 1778093145 | 30.56° C | 63% | 1016.3 hPa | 0 mm | - | 965 W/m² | - |
| 1778092842 | 30.56° C | 63% | 1016.3 hPa | 0 mm | - | 956 W/m² | - |
| 1778092538 | 31.11° C | 61% | 1016.4 hPa | 0 mm | - | 289 W/m² | - |
| 1778092235 | 31.11° C | 62% | 1016.3 hPa | 0 mm | - | 290 W/m² | - |
| 1778091932 | 31.11° C | 61% | 1016.3 hPa | 0 mm | - | 305 W/m² | - |
| 1778091629 | 31.67° C | 59% | 1016.3 hPa | 0 mm | - | 647 W/m² | - |
| 1778091327 | 30.56° C | 62% | 1016.5 hPa | 0 mm | - | 232 W/m² | - |
| 1778091023 | 30.56° C | 66% | 1016.7 hPa | 0 mm | - | 951 W/m² | - |
| 1778090720 | 30.56° C | 63% | 1016.8 hPa | 0 mm | - | 246 W/m² | - |
| 1778090417 | 30.56° C | 63% | 1016.8 hPa | 0 mm | - | 242 W/m² | - |
| 1778090113 | 30.56° C | 65% | 1016.9 hPa | 0 mm | - | 605 W/m² | - |
| 1778089810 | 30.56° C | 65% | 1016.9 hPa | 0 mm | - | 293 W/m² | - |
| 1778089509 | 30.56° C | 66% | 1016.9 hPa | 0 mm | - | 236 W/m² | - |
| 1778089204 | 30.56° C | 65% | 1016.8 hPa | 0 mm | - | 221 W/m² | - |
| 1778088902 | 31.67° C | 62% | 1016.9 hPa | 0 mm | - | 328 W/m² | - |
| 1778088599 | 32.22° C | 61% | 1016.7 hPa | 0 mm | - | 281 W/m² | - |
| 1778088296 | 31.67° C | 59% | 1016.9 hPa | 0 mm | - | 1034 W/m² | - |
| 1778087992 | 31.67° C | 54% | 1017 hPa | 0 mm | - | 202 W/m² | - |
| 1778087690 | 32.22° C | 56% | 1016.7 hPa | 0 mm | - | 889 W/m² | - |
| 1778087387 | 32.22° C | 55% | 1017 hPa | 0 mm | - | 384 W/m² | - |
| 1778087084 | 33.33° C | 53% | 1017.3 hPa | 0 mm | - | 216 W/m² | - |
* Rain latest hour (hover to see other rain measurements)
** Current wind speed in m/s (hover to see current wind gust speed)